www.pogodaiklimat.ru
ПОГОДА в Пекине
Время
(UTC), дата
12 4.12
15 4.12
18 4.12
21 4.12
00 5.12
03 5.12
06 5.12
09 5.12
12 5.12
15 5.12
18 5.12
21 5.12
00 6.12
03 6.12
06 6.12
09 6.12
12 6.12
15 6.12
18 6.12
21 6.12
00 7.12
03 7.12
06 7.12
09 7.12
12 7.12
15 7.12
18 7.12
21 7.12
00 8.12
03 8.12
06 8.12
09 8.12
12 8.12
15 8.12
18 8.12
21 8.12
00 9.12
03 9.12
06 9.12
09 9.12
12 9.12
15 9.12
18 9.12
21 9.12
00 10.12
03 10.12
06 10.12
09 10.12
12 10.12
15 10.12
18 10.12
21 10.12
00 11.12
03 11.12
06 11.12
09 11.12
Ветер
(напр.,м/с)
Видим. Явления Облачность Т
(С)
Тd
(С)
f
(%)
Тe
(С)
Тes
(С)
Комфортность P
(гПа)
Po
(гПа)
Тmin
(С)
Tmax
(С)
R
(мм)
R24
(мм)
S
(см)
СЗ 1
{8}
13 км ясно +0.9 -11.5 39 0 0 по сезону 1032.9 1028.7 -3.8 +10.1
В 4
{8}
8000 м н/о -0.8 -5.0 73 -6 -6 прохладно 1035.9 1031.8 -3.8 +10.1
В 3
{8}
9000 м н/о -2.8 -7.3 71 -8 -8 прохладно 1038.7 1034.6 -3.8 +10.1
СВ 2
{8}
8000 м н/о -3.4 -8.1 70 -7 -7 по сезону 1040.7 1036.5 -3.6 +10.1
СВ 1
{8}
7000 м мгла ясно -3.4 -8.1 70 -5 -5 по сезону 1043.4 1039.2 -4.4 +10.1
СВ 4
{8}
30 км ясно 0.0 -16.3 28 -4 -2 по сезону 1044.3 1040.1 -4.4 +10.1
СВ 3
{8}
30 км ясно +2.4 -19.5 18 -0 +2 по сезону 1042.4 1038.2 -4.4 +10.1
В 2
{8}
30 км ясно +0.5 -18.8 22 -2 -2 по сезону 1043.1 1038.9 -4.4 +6.9
Ю 1
{8}
30 км ясно -1.3 -19.3 24 -2 -2 по сезону 1043.8 1039.6 -4.4 +5.1
ЮЗ 1
{7}
19 км н/о -3.1 -17.1 33 -4 -4 по сезону 1043.2 1039.0 -4.4 +2.7
ЮЗ 2
{5}
8000 м н/о -4.3 -13.2 50 -8 -8 прохладно 1041.8 1037.6 -5.0 +2.7
Ю 1
{3}
9000 м н/о -6.9 -12.6 64 -9 -9 прохладно 1040.0 1035.8 -6.9 +2.7
В 1
{3}
10 км ясно -6.2 -13.1 58 -8 -8 прохладно 1039.0 1034.8 -7.2 +2.7
В 1
{3}
13 км 4/0
[]
-1.6 -12.5 43 -3 +1 по сезону 1037.5 1033.3 -7.2 +2.7
ЮЗ 4
{6}
4100 м мгла 8/0
[]
+1.3 -6.3 57 -3 -2 прохладно 1033.5 1029.3 -7.2 +2.7
З 2
{7}
4100 м мгла 6/0
[]
+0.6 -5.8 62 -2 -2 по сезону 1031.8 1027.6 -7.2 +1.9
В 1
{7}
3100 м мгла 4/0
[]
-1.8 -5.6 75 -4 -4 по сезону 1031.9 1027.7 -7.2 +1.9
штиль 0
{7}
2000 м мгла н/о -3.8 -6.1 84 -5 -5 по сезону 1031.5 1027.3 -7.2 +1.9
В 2
{7}
3900 м мгла н/о -3.8 -8.6 69 -8 -8 прохладно 1032.0 1027.8 -7.2 +1.9
С 1
{3}
8000 м н/о -4.6 -10.2 65 -7 -7 по сезону 1031.6 1027.4 -7.2 +1.9
ЮЗ 1
{5}
9000 м 3/0
[]
-3.9 -10.7 59 -6 -6 по сезону 1032.9 1028.7 -6.2 +1.9
ЮВ 2
{5}
11 км 3/0
[]
+2.8 -9.8 39 +1 +4 по сезону 1034.0 1029.8 -5.3 +3.2
Ю 2
{5}
10 км ясно +4.9 -9.6 34 +3 +6 по сезону 1031.6 1027.4 -5.3 +5.1
ЮВ 1
{5}
7000 м мгла 3/0
[]
+3.0 -8.7 42 +2 +2 по сезону 1031.2 1027.0 -5.3 +5.1
штиль 0
{4}
5000 м мгла 3/0
[]
-2.0 -8.3 62 -3 -3 по сезону 1031.2 1027.0 -5.3 +5.1
штиль 0
{4}
3800 м мгла н/о -4.2 -8.3 73 -5 -5 по сезону 1030.3 1026.1 -5.3 +5.1
ЮЗ 1
{4}
1400 м мгла н/о -3.6 -6.5 80 -6 -6 по сезону 1028.9 1024.8 -5.3 +5.1
Ю 2
{4}
100 м туман н/о -5.9 -6.7 94 -10 -10 холодно 1027.2 1023.0 -6.0 +5.1
ЮЗ 2
{4}
400 м слаб. снег {туман} 10/0
[]
-5.4 -6.2 94 -10 -10 холодно 1026.9 1022.7 -6.0 +5.1
ЮЗ 2
{4}
1000 м дымка н/о -4.0 -5.1 92 -8 -8 холодно 1025.7 1021.5 -6.0 +5.1
ЮЗ 2
{4}
1400 м мгла {снег, туман} 10/0
[]
-2.9 -5.7 81 -7 -7 очень
холодно
1023.0 1018.8 -6.0 +5.0 0.0 0.0
ЮЗ 1
{4}
1100 м мгла 10/10 100 м
[]
-3.5 -5.5 86 -6 -6 холодно 1022.2 1018.0 -6.0 +3.0
Ю 2
{4}
1100 м мгла 10/0
[]
-3.6 -5.4 87 -8 -8 холодно 1022.7 1018.5 -6.0 -2.0 0.0
ЮЗ 1
{4}
1200 м мгла н/о -3.7 -5.5 87 -6 -6 прохладно 1022.3 1018.1 -6.0 -2.2
З 1
{4}
1100 м мгла н/о -4.0 -5.5 89 -6 -6 по сезону 1021.2 1017.0 -6.0 -2.6
ЮЗ 1
{3}
1100 м дымка н/о -3.9 -5.4 89 -6 -6 по сезону 1019.7 1015.5 -6.0 -2.6
ЮЗ 2
{4}
900 м дымка 10/0
[]
-4.0 -5.4 90 -8 -8 прохладно 1020.3 1016.1 -5.4 -2.6 0.0
ЮЗ 2
{4}
1100 м мгла 9/9 1500 м
[]
-2.7 -5.0 84 -7 -6 прохладно 1020.8 1016.6 -4.2 -2.6
Ю 2
{4}
1900 м мгла 9/0
[]
+2.8 -4.6 58 0 +2 по сезону 1018.3 1014.2 -4.2 +2.8
ЮЗ 1
{4}
1800 м мгла 6/0
[]
+0.9 -4.7 66 -1 -1 по сезону 1018.6 1014.5 -4.2 +3.4
ЮЗ 1
{4}
1300 м мгла н/о -1.7 -4.5 81 -4 -4 по сезону 1019.4 1015.2 -4.2 +3.4
В 1
{4}
1100 м мгла н/о -1.9 -3.9 86 -4 -4 по сезону 1019.2 1015.1 -4.2 +3.4
Ю 1
{4}
800 м дымка н/о -3.7 -5.1 90 -6 -6 по сезону 1018.6 1014.5 -4.2 +3.4
СВ 1
{4}
800 м дымка н/о -4.6 -5.8 91 -7 -7 прохладно 1016.9 1012.8 -5.0 +3.4
ЮВ 1
{3}
800 м дымка 9/0
[]
-3.5 -4.6 92 -6 -6 по сезону 1017.6 1013.5 -5.3 +3.4
СВ 1
{3}
1300 м мгла 9/0
[]
+1.1 -2.5 77 -1 +2 по сезону 1018.1 1014.0 -5.3 +3.4
СЗ 6
{18}
17 км 3/0
[]
+9.3 -13.8 18 +7 +8 тепло 1016.6 1012.5 -5.3 +9.7
С 5
{18}
30 км 1/0
[]
+7.3 -15.5 18 +4 +4 тепло 1018.8 1014.7 -5.3 +9.7
С 4
{18}
30 км ясно +5.3 -14.7 22 +2 +2 тепло 1021.2 1017.1 -5.3 +9.7
СВ 3
{18}
30 км н/о +2.5 -13.7 29 -1 -1 по сезону 1021.6 1017.5 -5.3 +9.7
СВ 2
{13}
30 км н/о 0.0 -12.6 38 -3 -3 по сезону 1021.8 1017.7 -5.3 +9.7
З 2
{10}
3700 м мгла н/о -0.6 -7.8 58 -4 -4 по сезону 1021.7 1017.6 -5.3 +9.7
СЗ 6
{14}
30 км 3/0
[]
+3.0 -17.2 21 -2 -2 по сезону 1025.1 1021.0 -3.5 +9.7
СЗ 6
{14}
30 км ясно +1.9 -18.1 21 -3 -1 по сезону 1028.0 1023.9 -3.0 +9.7
С 4
{14}
30 км ясно +2.7 -19.9 17 -1 +1 по сезону 1027.8 1023.7 -3.0 +9.5
С 4
{14}
30 км н/о +1.5 -20.9 17 -2 -2 по сезону 1028.7 1024.6 -3.0 +7.2
Местоположение метеостанции Пекин (город Пекин, Китай): широта 39.93 долгота 116.28 высота над уровнем моря 55 м.
В архиве по умолчанию представлена погода в Пекине за последнюю неделю. Архивные данные за месяц целиком и за предыдущие месяцы, начиная с января 2011 года, Вы можете получить, выбрав интересующий диапазон дат из раскрывающегося списка и нажав кнопку "Найти!".
*Определитесь, кто Вы:
Внимание! Время в таблицах - всемирное. Для получения местного времени необходимо прибавить поправку, которая равна 8 ч.
Смотрите также архив погоды в соседних городах и на ближайших метеорологических станциях:
Партнеры нашего сайта:      
Пояснения к столбцам:
  • Ветер - указаны скорость ветра в м/с - средняя за 10 мин, порывы в срок и между сроками (в фигурных скобках) и направление, откуда дует ветер: С - северный,
  • СВ - северо-восточный, В - восточный, ЮВ - юго-восточный, Ю - южный, ЮЗ - юго-западный, З - западный, СЗ - северо-западный.
  • Видимость - горизонтальная дальность видимости в метрах или километрах. При видимости от 1 до 10 км при отсутствии осадков обычно наблюдается дымка, при ухудшении видимости до 1 км и менее - туман. В сухую погоду видимость может ухудшаться дымом, пылью или мглою.
  • Явления - указаны атмосферные явления, наблюдавшиеся в срок или в последний час перед сроком; фигурными скобками обозначены явления, наблюдавшиеся между сроками (за 1-3 часа до срока); квадратными скобками обозначены град или гололедные отложения с указанием их диаметра в мм.
  • Облачность - указаны через наклонную черту общая и нижняя облачность в баллах и высота нижней границы облаков в метрах; квадратными скобками обозначены формы облаков: Ci - перистые, Cs - перисто-слоистые, Cc - перисто-кучевые, Ac - высококучевые, As - высокослоистые, Sc - слоисто-кучевые, Ns - слоисто-дождевые, Cu - кучевые, Cb - кучево-дождевые. Подробнее классификацию облаков см. в Атласе облаков (PDF).
  • T - Температура воздуха - температура, измеренная на высоте 2 м над землей.
  • Td - Температура точки росы - температура, при понижении до которой содержащийся в воздухе водяной пар достигнет насыщения.
  • f - Относительная влажность воздуха - влажноcть воздуха, измеренная на высоте 2 м над землей.
  • Te - Эффективная температура - температура, которую ощущает одетый по сезону человек в тени. Характеристика душности погоды. При расчете учитывается влияние влажности воздуха и скорости ветра на теплоощущения человека.
  • Tes - Эффективная температура на солнце - температура, которую ощущает человек, с поправкой на солнечный нагрев. Характеристика знойности погоды. Зависит от высоты солнца над горизонтом, облачности и скорости ветра. Ночью, в пасмурную погоду, а также при ветре 12 м/с и более поправка равна нулю.
  • P - Атмосферное давление - приведенное к уровню моря атмосферное давление.
  • Po - Атмосферное давление - измеренное на уровне метеостанции атмосферное давление.
  • Tmin - Минимальная температура - минимум температуры воздуха на высоте 2 м над землей.
  • Tmax - Максимальная температура - максимум температуры воздуха на высоте 2 м над землей.
  • R - Количество осадков - Количество выпавших осадков за период времени, мм. При наведении курсора мыши на число - период времени, за который выпало указанное количество осадков.
  • R24 - Количество осадков - Количество выпавших осадков за 24 часа, мм.
  • S - Снежный покров - Высота снежного покрова, см. При наведении курсора мыши на число - состояние снежного покрова и степень покрытия местности в баллах.